Location: Cactus School
(34.5700°N, 118.0931°W)
Time: 22:17:52
(UTC-07:00)

Vanguard 2 - Pass Details

Date: 29 April 2024
Orbit: 553 x 2914 km, 32.9° (Epoch: 18 May)

Event Time Altitude Azimuth Distance (km) Brightness Sun altitude
Exits shadow 02:14:54 49° 263° (W) 2,806 10.0 -36.8°
Maximum altitude 02:20:12 84° 181° (S) 2,565 9.8 -36.3°
Drops below altitude 10° 02:38:04 10° 96° (E) 5,739 12.2 -34.4°
Sets 02:42:31 0° 96° (E) 6,722 12.7 -33.9°
